Weather in Santa Monica

United States     34°01′30″N   118°28′49″W
temp.,
°C
wind,
m/s
gust,
m/s
humid.,
%
clouds,
%
prec.,
mm/h
press.,
hPa
HPBL,
m
7 may, fri
fri723:00+14s118348 0.0 1017367
02:00+13s118354 0.0 1016367
05:00+14se128142 0.0 1016344
08:00+15sse217522 0.0 1016478
11:00+18ssw42620 0.0 1016626
14:00+17ssw426614 0.0 1014475
17:00+17sw446916 0.0 1013417
20:00+15s227912 0.0 1013239
8 may, sat
sat823:00+15se33761 0.0 1013343
02:00+15ese23792 0.0 1013394
05:00+15se33814 0.0 1012373
08:00+16sse227414 0.0 1014519
11:00+19s42600 0.0 1014627
14:00+18sw53650 0.0 1013458
17:00+18sw436713 0.0 1012359
20:00+16sw22774 0.0 1012230
9 may, sun
sun923:00+15s22781 0.0 1012277
02:00+15se23760 0.0 1012298
05:00+15ese23811 0.0 1012327
08:00+16ese337618 0.0 1012554
11:00+19s43612 0.0 1012733
14:00+18ssw53664 0.0 1011645
17:00+17sw43690 0.0 1009482
20:00+15ssw338018 0.0 1010366
10 may, mon
mon1023:00+15sse237872 0.0 1010550
02:00+16ese447298 0.1 1010783
05:00+16ese3470100 0.1 1010833
08:00+17se336667 0.0 1011941
11:00+19s43571 0.0 1011876
14:00+18ssw53630 0.0 1011634
17:00+17sw43660 0.0 1011487
20:00+15sw22750 0.0 1011245
11 may, tue
tue1123:00+15sw227715 0.0 1012284
02:00+15s117713 0.0 1012312
05:00+14sse12770 0.0 1013291
08:00+16s11720 0.0 1014365
11:00+19ssw32600 0.0 1014509
14:00+19sw546210 0.0 1013408
17:00+19sw54660 0.0 1012352
20:00+16sw33803 0.0 1014268